Location: Broletto
(44.6000°N, 10.5833°E)
Time: 02:51:22
(UTC+00:00)

Cosmos 1844 Rocket - Pass Details

Date: 18 April 2021
Orbit: 825 x 844 km, 71.0° (Epoch: 15 May)

Event Time Altitude Azimuth Distance (km) Brightness Sun altitude
Exits shadow 23:39:36 38° 40° (NE) 1,237 3.8 -34.0°
Drops below altitude 10° 23:43:02 10° 30° (NNE) 2,435 5.8 -33.9°
Sets 23:45:28 0° 28° (NNE) 3,374 6.8 -33.8°
